MDT,Max TemperatureF,Mean TemperatureF,Min TemperatureF,Max Dew PointF,MeanDew PointF,Min DewpointF,Max Humidity, Mean Humidity, Min Humidity, Max Sea Level PressureIn, Mean Sea Level PressureIn, Min Sea Level PressureIn, Max VisibilityMiles, Mean VisibilityMiles, Min VisibilityMiles, Max Wind SpeedMPH, Mean Wind SpeedMPH, Max Gust SpeedMPH,PrecipitationIn, CloudCover, Events, WindDirDegrees
2013-3-1,39,34,30,28,24,18,80,67,45,30.30,30.28,30.24,10,10,10,14,5,,0.00,2,,178
2013-3-2,48,37,26,36,28,19,87,70,54,30.28,30.21,30.04,20,11,10,12,8,,0.00,1,,194
2013-3-3,57,47,37,34,28,21,70,53,32,30.01,29.81,29.68,20,10,10,17,10,23,0.00,1,,218
2013-3-4,42,28,14,30,23,9,100,76,53,30.21,29.91,29.70,20,10,0,21,6,18,0.00,3,Snow,56
2013-3-5,39,24,8,28,15,3,93,76,48,30.24,30.18,30.11,10,10,10,21,7,26,0.00,0,,166
2013-3-6,55,37,19,30,24,18,93,69,25,30.10,29.97,29.83,10,10,10,15,5,,0.00,1,,197
2013-3-7,62,48,35,32,28,25,81,61,25,29.97,29.91,29.86,10,10,10,20,10,25,0.00,1,,184
2013-3-8,44,38,32,36,32,30,100,88,66,29.96,29.86,29.66,10,9,2,13,9,,0.00,2,,260
2013-3-9,33,30,23,34,28,16,100,88,69,30.05,29.78,29.62,20,5,0,31,11,38,0.00,5,Snow,319
2013-3-10,35,28,21,25,22,18,86,71,60,30.11,30.06,29.99,20,10,10,18,10,,0.00,3,,304
2013-3-11,51,42,32,34,26,21,100,71,35,30.14,30.00,29.91,10,8,1,23,10,30,0.00,5,Snow,243
2013-3-12,32,29,26,32,28,23,100,94,80,30.30,30.21,30.14,20,8,1,15,4,,0.00,6,Snow,82
2013-3-13,60,45,30,37,29,27,93,63,31,30.27,30.22,30.16,10,9,5,12,7,,0.00,1,,217
2013-3-14,68,55,42,39,29,25,62,45,21,30.32,30.23,30.16,10,10,10,14,8,,0.00,1,,209
2013-3-15,75,60,44,36,28,21,66,38,13,30.16,30.02,29.89,10,10,10,18,10,12,0.00,2,,203
2013-3-16,53,48,42,37,34,28,76,61,43,30.03,29.92,29.83,10,10,10,17,8,24,0.00,5,,159
2013-3-17,60,46,33,34,28,16,87,61,19,29.83,29.72,29.53,20,11,10,30,13,41,0.00,1,,231
2013-3-18,50,39,28,21,14,7,64,45,20,29.93,29.88,29.84,20,10,10,32,8,41,0.00,2,,296
2013-3-19,50,38,24,21,16,1,80,51,14,30.33,30.07,29.93,10,10,10,18,6,16,0.00,1,,335
2013-3-20,59,40,21,28,21,12,93,67,16,30.33,30.07,29.75,10,10,10,12,5,,0.00,2,,181
2013-3-21,60,46,30,36,27,19,86,59,25,29.84,29.69,29.51,10,10,10,34,8,47,0.00,2,,193
2013-3-22,44,35,26,30,24,19,100,77,37,29.87,29.81,29.63,10,8,2,26,8,33,0.00,4,Snow,105
2013-3-23,28,21,14,28,19,12,100,92,86,30.14,29.98,29.86,10,4,0,26,14,33,0.00,6,Snow,330
2013-3-24,26,13,0,19,8,-6,100,79,54,30.18,30.09,30.04,20,10,2,12,8,,0.00,3,Snow,199
2013-3-25,30,16,3,18,9,1,93,78,40,30.22,30.18,30.16,20,10,5,13,4,,0.00,4,Snow,174
2013-3-26,48,32,17,32,19,10,100,70,45,30.16,30.05,29.91,10,9,4,15,9,,0.00,1,,202
2013-3-27,51,40,30,39,32,27,93,80,54,30.10,30.05,29.99,10,9,5,17,7,22,0.00,2,,199
2013-3-28,62,47,32,39,33,30,100,71,30,30.13,30.08,30.06,10,9,3,12,7,,0.00,2,,196
2013-3-29,66,54,41,36,33,28,76,54,24,30.14,30.12,30.06,10,10,10,16,9,,0.00,2,,233
2013-3-30,64,50,37,39,34,27,87,66,24,30.23,30.14,30.02,10,10,10,23,6,31,0.00,2,,234
2013-3-31,68,50,33,36,30,16,93,67,14,30.22,30.10,29.96,10,10,10,12,7,,0.00,0,,178